Regional Weather Roundup
Issued by NWS

Home | Current Version | Previous Version | Text Only | Print | Product List | Glossary Off
Versions: 1 2 3 4 5 6 7 8 9 10 11 12 13 14 15 16 17 18 19 20 21 22 23 24 25 26 27 28 29 30 31 32 33 34 35 36 37 38 39 40 41 42 43 44 45 46 47 48 49 50

000
ASUS43 KDTX 182301
RWRMI
MICHIGAN HOURLY REGIONAL WEATHER ROUNDUP
NATIONAL WEATHER SERVICE DETROIT/PONTIAC MI
700 PM EDT FRI APR 18 2014

NOTE: "FAIR" INDICATES FEW OR NO CLOUDS BELOW 12,000 FEET WITH NO
SIGNIFICANT WEATHER AND/OR OBSTRUCTION TO VISIBILITY.

MIZ047>049-052>055-059>063-066>070-074>076-081>083-190000-
SOUTHEAST LOWER MICHIGAN

CITY           SKY/WX    TMP DP  RH WIND       PRES   REMARKS
ADRIAN         SUNNY     63  32  31 NW9       30.22F
ALMA           SUNNY     56  28  34 NW10      30.27R
ANN ARBOR      SUNNY     62  33  33 NW8       30.22F
BAD AXE        SUNNY     42  32  68 NE8       30.30R
CARO           CLOUDY    55  39  54 N10       30.25S
DETROIT CITY   SUNNY     53  38  56 E10       30.25S
DETROIT        MOSUNNY   57  42  57 E7        30.24S
FLINT          MOSUNNY   59  37  44 NW15      30.24S
GROSSE ILE     SUNNY     54  43  66 NE9       30.23S
HILLSDALE      SUNNY     62  31  31 W14       30.23S
HOWELL         SUNNY     58  33  38 NW9       30.23S

CITY           SKY/WX    TMP DP  RH WIND       PRES   REMARKS
JACKSON        MOSUNNY   61  34  36 NW9       30.23S
LAMBERTVILLE   SUNNY     57  41  54 E7        30.23S
LANSING        MOSUNNY   59  33  37 W13       30.26S
LAPEER         CLOUDY    50  40  69 E7        30.25S
MASON          MOSUNNY   59  34  40 W12       30.25R
MONROE         SUNNY     55  45  67 E9        30.22S
MT. CLEMENS    MOSUNNY   48  39  70 E9        30.23S
PONTIAC        MOSUNNY   57  35  43 NW5       30.23S
PORT HOPE        N/A     36  31  82 NE13      30.31S WCI  27
PORT HURON     SUNNY     43  32  65 NE12      30.29R
TRI CITIES     MOSUNNY   52  39  61 NE12      30.27S
TROY           PTSUNNY   56  42  58 SE8       30.25S
SAGINAW HB     MOSUNNY   52  37  58 N13       30.26R
YPSILANTI      MOSUNNY   61  43  51 SE9       30.23S
$$
MIZ043>046-050>051-056>058-064>065-071>073-077>080-190000-
SOUTHWEST LOWER MICHIGAN

CITY           SKY/WX    TMP DP  RH WIND       PRES   REMARKS
BATTLE CREEK   SUNNY     57  34  41 NW14      30.28R
BENTON HARBOR  SUNNY     40  29  64 N7        30.34S
BIG RAPIDS     SUNNY     50  22  32 N10       30.29S
COLDWATER      SUNNY     58  30  33 NW9       30.25S
FREMONT        FAIR      48  23  36 NW9       30.32R
HOLLAND        SUNNY     43  29  57 NW12      30.34S
GRAND RAPIDS   MOSUNNY   56  32  40 NW12      30.29S
IONIA          FAIR      57  28  33 NW12      30.26R
KALAMAZOO      SUNNY     55  33  43 NW14      30.29R
LUDINGTON      SUNNY     39  26  59 N9G18     30.37S WCI  33
MARSHALL       SUNNY     58  32  37 NW12G18   30.25R
MOUNT PLEASANT SUNNY     54  30  40 NW7       30.27R
MUSKEGON       MOSUNNY   46  29  51 W8        30.33R
SOUTH HAVEN    SUNNY     39  28  64 N13       30.35S WCI  32
$$
MIZ016>042-190000-
NORTHERN LOWER MICHIGAN

CITY           SKY/WX    TMP DP  RH WIND       PRES   REMARKS
ALPENA         CLOUDY    40  25  55 NW14G20   30.34R WCI  32
BEAVER ISLAND  CLOUDY    37  29  74 NW7       30.39S WCI  31
BELLAIRE       CLOUDY    40  26  56 N6        30.38R
CADILLAC       SUNNY     39  25  57 N12       30.33R WCI  31
CHARLEVOIX     CLOUDY    37  29  74 NW6       30.42S WCI  32
FRANKFORT      SUNNY     40  25  55 NE7       30.38S
GAYLORD        CLOUDY    35  24  64 N7        30.34S WCI  29
GRAYLING       SUNNY     38  24  55 NW12      30.35R WCI  31
HARBOR SPRINGS CLOUDY    38  27  64 NW6       30.37S WCI  34
HOUGHTON LAKE  SUNNY     42  24  49 NW10      30.33R
MANISTEE       SUNNY     39  25  56 NW10      30.38S WCI  32
OSCODA         PTSUNNY   38  31  73 NE8       30.31S WCI  32
PELLSTON       CLOUDY    37  27  67 NW10      30.38R WCI  30
ROGERS CITY    CLOUDY    38  29  68 NW13G20   30.36R WCI  30
TRAVERSE CITY  MOSUNNY   40  26  57 NE9       30.37S WCI  34
$$
MIZ007>008-015-190000-
EASTERN UPPER MICHIGAN

CITY           SKY/WX    TMP DP  RH WIND       PRES   REMARKS
KINROSS        CLOUDY    36  32  87 NW14      30.35S WCI  27
MACKINAC ISLAN CLOUDY    37  29  73 NW5       30.35F WCI  33
NEWBERRY       PTSUNNY   34  28  76 NW10G17   30.37R WCI  26
S. S. MARIE    CLOUDY    34  30  85 W8        30.35S WCI  27
MUNISING         N/A     34  28  79 NW12      30.41S WCI  25
$$
MIZ004>006-011>014-085-190000-
CENTRAL UPPER MICHIGAN

CITY           SKY/WX    TMP DP  RH WIND       PRES   REMARKS
MANISTIQUE     PTSUNNY   37  29  72 N9G16     30.39S WCI  30
ESCANABA       MOSUNNY   43  23  45 N7        30.39R
MENOMINEE      MOSUNNY   43  23  45 E7        30.38R
SAWYER-GWINN   SUNNY     34  28  80 NE9       30.38R WCI  26
$$
MIZ001>003-009>011-084-190000-
WESTERN UPPER MICHIGAN

CITY           SKY/WX    TMP DP  RH WIND       PRES   REMARKS
IRON MOUNTAIN  MOSUNNY   40  23  50 NE5       30.37R
HOUGHTON       SUNNY     35  22  58 NW8       30.39R WCI  29
COPPER HARBOR    N/A     34  27  75 N9        30.41S WCI  27
IRONWOOD       SUNNY     39  19  45 NE6       30.33F WCI  35
$$

ABBREVIATIONS USED IN REMARKS
   TC - TEMPERATURE IN CELSIUS
  WCI - WIND CHILL INDEX
   HX - HEAT INDEX
  VSB - VISIBILITY




USA.gov is the U.S. government's official web portal to all federal, state and local government web resources and services.